Tracking 18984 objects as of 24-Feb-2018
HD Live streaming from Space Station
objects crossing your sky now

FENGYUN 1C DEB

Track FENGYUN 1C DEB now!
10-day predictions


NORAD ID: 30740
Int'l Code: 1999-025ATA
Perigee: 783.5 km
Apogee: 855.8 km
Inclination: 98.8 °
Period: 101.1 minutes
Semi major axis: 7190 km
RCS: 0.0332 m2 (small)
Launch date: May 10, 1999
Source: People's Republic of China (PRC)
Launch site: Taiyaun Space Center, China (TSC)

Note: This is SATELLITE DEBRIS
aabbcc
Your satellite tracking list
Your tracking list is empty




NASA's NSSDC Master Catalog

Two Line Element Set (TLE):
1 30740U 99025ATA 18053.58511019 +.00000729 +00000-0 +33414-3 0  9992
2 30740 098.8166 109.6221 0050265 192.1387 167.8584 14.23801862569086
Source of the keplerian elements: AFSPC